,,PA_Meas_PMT16A,,PR_Meas_QMR101_102,,RH_Meas_QMH101,,SR_Meas_QMS101,,TA_Meas_QMH101,,GenWind,,GenWind,
time,status,PA,status,PR,status,RH,status,SR,status,TA,status,DirAvg,status,SpdAvg,
2012-11-05, 07:51:04,VALID,918.513,VALID,0,VALID,94.7667,VALID,102.284,VALID,20.0553,VALID,6,VALID,0,
2012-11-05, 07:52:04,VALID,918.546,VALID,0,VALID,95.003,VALID,103.681,VALID,20.0944,VALID,6,VALID,0,
2012-11-05, 08:26:04,VALID,918.807,VALID,0,VALID,94.9039,VALID,91.8622,VALID,20.0358,INVALID,360,VALID,0,
2012-11-05, 08:27:04,VALID,918.798,VALID,0,VALID,94.9649,VALID,98.3087,VALID,20.0553,VALID,360,VALID,0,
2012-11-05, 08:28:04,VALID,918.821,VALID,0,VALID,95.0488,VALID,104.648,VALID,20.0944,VALID,360,VALID,0,
2012-11-05, 08:29:04,VALID,918.807,VALID,0,VALID,95.0259,VALID,106.797,VALID,20.1349,VALID,360,VALID,0,
2012-11-05, 08:30:04,VALID,918.8,VALID,0,VALID,95.0869,VALID,106.797,VALID,20.1739,VALID,360,VALID,0,
2012-11-05, 08:31:04,VALID,918.791,VALID,0,VALID,95.1326,VALID,105.937,VALID,20.1934,VALID,360,VALID,0,
2012-11-05, 08:32:04,VALID,918.618,VALID,0,VALID,94.7819,VALID,104.97,VALID,20.1139,VALID,360,VALID,0,
2012-11-05, 08:33:04,VALID,918.808,VALID,0,VALID,94.5304,VALID,104.97,VALID,20.0959,VALID,360,VALID,0,
2012-11-05, 08:34:04,VALID,918.806,VALID,0,VALID,94.3779,VALID,106.474,VALID,20.0553,VALID,298,VALID,0,
2012-11-05, 08:35:04,VALID,918.802,VALID,0,VALID,94.1416,VALID,109.697,VALID,20.0374,VALID,298,VALID,0,
2012-11-05, 08:36:04,VALID,918.82,VALID,0,VALID,94.5075,VALID,113.995,VALID,20.0959,VALID,298,VALID,0,
2012-11-05, 08:37:04,VALID,918.779,VALID,0,VALID,94.599,VALID,117.863,VALID,20.0944,VALID,299,VALID,0,
2012-11-05, 08:38:04,VALID,918.859,VALID,0,VALID,94.5151,VALID,120.442,VALID,20.0944,VALID,298,VALID,0,
2012-11-05, 08:39:04,VALID,918.843,VALID,0,VALID,94.4846,VALID,122.805,VALID,20.1154,VALID,298,VALID,0,
2012-11-05, 08:40:04,VALID,918.821,VALID,0,VALID,94.6523,VALID,125.169,VALID,20.1544,VALID,298,VALID,0,
2012-11-05, 08:41:04,VALID,918.818,VALID,0,VALID,94.7972,VALID,126.995,VALID,20.1919,VALID,298,VALID,0,
2012-11-05, 08:42:04,VALID,918.829,VALID,0.2,VALID,94.66,VALID,127.855,VALID,20.2309,VALID,298,VALID,0,
2012-11-05, 08:43:04,VALID,918.822,VALID,0,VALID,94.0577,VALID,128.714,VALID,20.1529,VALID,298,VALID,0,
2012-11-05, 08:44:04,VALID,918.816,VALID,0,VALID,93.768,VALID,129.681,VALID,20.1334,VALID,298,VALID,0,
2012-11-05, 08:45:04,VALID,918.841,VALID,0,VALID,93.7299,VALID,130.756,VALID,20.1529,VALID,298,VALID,0,
2012-11-05, 08:46:04,VALID,918.839,VALID,0,VALID,93.707,VALID,132.045,VALID,20.2129,VALID,298,VALID,0,
2012-11-05, 08:47:04,VALID,918.805,VALID,0,VALID,93.364,VALID,133.12,VALID,20.1724,VALID,298,VALID,0,
2012-11-05, 08:48:04,VALID,918.839,VALID,0,VALID,92.8989,VALID,134.087,VALID,20.1544,VALID,299,VALID,0,
2012-11-05, 08:49:04,VALID,918.811,VALID,0,VALID,93.0133,VALID,135.161,VALID,20.1529,VALID,298,VALID,0,
2012-11-05, 08:50:04,VALID,918.81,VALID,0,VALID,93.1505,VALID,137.632,VALID,20.1724,VALID,299,VALID,0,
2012-11-05, 08:51:04,VALID,918.851,VALID,0,VALID,92.9066,VALID,141.178,VALID,20.1724,VALID,298,VALID,0,
2012-11-05, 08:52:04,VALID,918.793,VALID,0,VALID,92.9904,VALID,145.26,VALID,20.2129,VALID,308,VALID,0,
2012-11-05, 08:53:04,VALID,918.851,VALID,0,VALID,93.3792,VALID,149.021,VALID,20.2504,VALID,308,VALID,0,
2012-11-05, 08:54:04,VALID,918.85,VALID,0,VALID,93.4936,VALID,152.029,VALID,20.3105,VALID,309,VALID,0,
2012-11-05, 08:55:04,VALID,918.844,VALID,0,VALID,92.7693,VALID,153.963,VALID,20.2894,VALID,309,VALID,0,
2012-11-05, 08:56:04,VALID,918.818,VALID,0,VALID,92.9599,VALID,154.393,VALID,20.3269,VALID,337,VALID,0,
2012-11-05, 08:57:04,VALID,918.824,VALID,0,VALID,92.6321,VALID,154.071,VALID,20.408,VALID,37,VALID,0,
2012-11-05, 08:58:04,VALID,918.835,VALID,0,VALID,92.8075,VALID,152.459,VALID,20.3885,VALID,28,VALID,0,
2012-11-05, 08:59:04,VALID,918.799,VALID,0,VALID,92.7389,VALID,151.277,VALID,20.3074,VALID,57,VALID,0,
2012-11-05, 09:00:04,VALID,918.853,VALID,0,VALID,92.8913,VALID,150.418,VALID,20.2699,VALID,56,VALID,0,
2012-11-05, 09:01:04,VALID,918.902,VALID,0,VALID,93.7147,VALID,149.451,VALID,20.3089,VALID,14,VALID,0,
2012-11-05, 09:02:04,VALID,918.92,VALID,0,VALID,94.0348,VALID,149.236,VALID,20.3479,VALID,26,VALID,0,
2012-11-05, 09:03:04,VALID,918.839,VALID,0,VALID,93.7604,VALID,149.021,VALID,20.2668,VALID,30,VALID,0,
2012-11-05, 09:04:04,VALID,918.862,VALID,0,VALID,94.0501,VALID,148.913,VALID,20.3479,VALID,9,VALID,0,
2012-11-05, 09:05:04,VALID,918.828,VALID,0,VALID,94.2254,VALID,150.31,VALID,20.3479,VALID,25,VALID,0,
2012-11-05, 09:06:04,VALID,918.881,VALID,0,VALID,93.6689,VALID,152.459,VALID,20.2894,VALID,29,VALID,0,
2012-11-05, 09:07:04,VALID,918.873,VALID,0,VALID,93.2649,VALID,156.434,VALID,20.2114,VALID,32,VALID,0,
2012-11-05, 09:08:04,VALID,918.853,VALID,0,VALID,93.8214,VALID,162.129,VALID,20.2309,VALID,45,VALID,0,
2012-11-05, 09:09:04,VALID,918.804,VALID,0,VALID,93.8061,VALID,168.79,VALID,20.2504,VALID,45,VALID,0,
2012-11-05, 09:10:04,VALID,918.864,VALID,0,VALID,94.0425,VALID,174.699,VALID,20.2894,VALID,45,VALID,0,
2012-11-05, 09:11:04,VALID,918.854,VALID,0,VALID,94.1492,VALID,178.675,VALID,20.3495,VALID,45,VALID,0,
2012-11-05, 09:12:04,VALID,918.833,VALID,0,VALID,93.829,VALID,180.394,VALID,20.3885,VALID,45,VALID,0,
2012-11-05, 09:13:04,VALID,918.842,VALID,0,VALID,93.9815,VALID,180.286,VALID,20.486,VALID,45,VALID,0,
2012-11-05, 09:14:04,VALID,918.84,VALID,0,VALID,93.3564,VALID,178.782,VALID,20.5266,VALID,45,VALID,0,
2012-11-05, 09:15:04,VALID,918.617,VALID,0,VALID,93.5317,VALID,174.592,VALID,20.6031,VALID,45,VALID,0,
2012-11-05, 09:16:04,VALID,918.817,VALID,0,VALID,93.3564,VALID,169.435,VALID,20.7006,VALID,41,VALID,0,
2012-11-05, 09:17:04,VALID,918.809,VALID,0,VALID,92.4873,VALID,167.393,VALID,20.7006,VALID,41,VALID,0,
2012-11-05, 09:18:04,VALID,918.81,VALID,0,VALID,91.6868,VALID,170.402,VALID,20.7396,VALID,41,VALID,0,
2012-11-05, 09:19:04,VALID,918.776,VALID,0,VALID,92.0146,VALID,178.89,VALID,20.7576,VALID,41,VALID,0,
2012-11-05, 09:20:04,VALID,918.806,VALID,0,VALID,92.472,VALID,192.642,VALID,20.8372,VALID,41,VALID,0,
2012-11-05, 09:21:04,VALID,918.781,VALID,0,VALID,92.7236,VALID,211.659,VALID,20.9347,VALID,41,VALID,0,
2012-11-05, 09:22:04,VALID,918.78,VALID,0,VALID,92.3653,VALID,236.478,VALID,20.9933,VALID,41,VALID,0,
2012-11-05, 09:23:04,VALID,918.797,VALID,0,VALID,92.1214,VALID,256.032,VALID,21.0908,VALID,41,VALID,0,
2012-11-05, 09:24:04,VALID,918.798,VALID,0,VALID,90.8254,VALID,266.776,VALID,21.1103,VALID,21,VALID,0,
2012-11-05, 09:25:04,VALID,918.771,VALID,0,VALID,89.9716,VALID,275.801,VALID,21.1298,VALID,9,VALID,0,
2012-11-05, 09:26:04,VALID,918.791,VALID,0,VALID,90.9169,VALID,279.777,VALID,21.1298,VALID,9,VALID,0,
2012-11-05, 09:27:04,VALID,918.786,VALID,0,VALID,90.5662,VALID,279.347,VALID,21.1689,VALID,32,VALID,0,
2012-11-05, 09:28:04,VALID,918.814,VALID,0,VALID,91.0388,VALID,272.901,VALID,21.2063,VALID,32,VALID,0,
2012-11-05, 09:29:04,VALID,918.817,VALID,0,VALID,91.0083,VALID,266.561,VALID,21.3055,VALID,48,VALID,0,
2012-11-05, 09:30:04,VALID,918.806,VALID,0,VALID,90.0249,VALID,263.983,VALID,21.3429,VALID,82,VALID,0,
2012-11-05, 09:31:04,VALID,918.838,VALID,0,VALID,89.0339,VALID,265.809,VALID,21.364,VALID,112,VALID,0,
2012-11-05, 09:32:04,VALID,918.805,VALID,0,VALID,89.2016,VALID,269.462,VALID,21.2859,VALID,117,VALID,0,
2012-11-05, 09:33:04,VALID,918.791,VALID,0,VALID,88.2105,VALID,271.934,VALID,21.2859,VALID,117,VALID,0,
2012-11-05, 09:34:04,VALID,918.803,VALID,0,VALID,88.3859,VALID,272.686,VALID,21.2274,VALID,122,VALID,0,
2012-11-05, 09:35:04,VALID,918.798,VALID,0,VALID,88.0352,VALID,273.975,VALID,21.2664,VALID,122,VALID,0,
2012-11-05, 09:36:04,INVALID,916.416,VALID,0,VALID,89.0644,VALID,275.372,VALID,21.3234,VALID,122,VALID,0,
2012-11-05, 09:37:04,VALID,918.77,VALID,0,VALID,88.7366,VALID,271.826,VALID,21.4014,VALID,168,VALID,0,
2012-11-05, 09:38:04,VALID,918.791,VALID,0,VALID,88.6451,VALID,270.752,VALID,21.4225,VALID,186,VALID,0,
2012-11-05, 09:39:04,VALID,918.809,VALID,0,VALID,88.424,VALID,269.033,VALID,21.4599,VALID,185,VALID,0,
2012-11-05, 09:40:04,VALID,918.806,VALID,0,VALID,88.3478,VALID,269.248,VALID,21.4014,VALID,165,VALID,0,
2012-11-05, 09:41:04,VALID,918.784,VALID,0,VALID,90.3756,VALID,279.454,VALID,21.4794,VALID,70,VALID,0,
2012-11-05, 09:42:04,VALID,918.763,VALID,0,VALID,88.8204,VALID,297.934,VALID,21.4599,VALID,47,VALID,0,
2012-11-05, 09:43:04,VALID,918.796,VALID,0,VALID,89.7962,VALID,320.175,VALID,21.5201,VALID,151,VALID,0,
2012-11-05, 09:44:04,VALID,918.786,VALID,0,VALID,87.9209,VALID,338.977,VALID,21.4599,VALID,135,VALID,0,
2012-11-05, 09:45:04,VALID,918.625,VALID,0,VALID,89.2397,VALID,353.696,VALID,21.5185,VALID,135,VALID,0,
2012-11-05, 09:46:04,VALID,918.811,VALID,0,VALID,88.3325,VALID,361.862,VALID,21.5575,VALID,124,VALID,0,
2012-11-05, 09:47:04,VALID,918.687,VALID,0,VALID,88.5231,VALID,364.655,VALID,21.5965,VALID,153,VALID,0,
2012-11-05, 09:48:04,VALID,918.772,VALID,0,VALID,88.607,VALID,364.333,VALID,21.616,VALID,138,VALID,0,
2012-11-05, 09:49:04,VALID,918.673,VALID,0,VALID,88.2105,VALID,368.845,VALID,21.7136,VALID,102,VALID,0,
2012-11-05, 09:50:04,VALID,918.803,VALID,0,VALID,88.3325,VALID,374.432,VALID,21.8112,VALID,136,VALID,0,
2012-11-05, 09:51:04,VALID,918.942,VALID,0,VALID,85.7634,VALID,381.309,VALID,21.7543,VALID,146,VALID,0,
2012-11-05, 09:52:04,VALID,918.744,VALID,0,VALID,86.6325,VALID,388.185,VALID,21.7917,VALID,160,VALID,0,
2012-11-05, 09:53:04,VALID,918.792,VALID,0,VALID,87.8751,VALID,398.284,VALID,21.9087,VALID,113,VALID,0,
2012-11-05, 09:54:04,VALID,918.774,VALID,0,VALID,86.8078,VALID,411.5,VALID,22.0047,VALID,75,VALID,0,
2012-11-05, 09:55:04,VALID,918.762,VALID,0,VALID,87.1509,VALID,426.756,VALID,22.0258,VALID,68,VALID,0,
2012-11-05, 09:56:04,VALID,918.822,VALID,0,VALID,86.2818,VALID,446.096,VALID,22.0632,VALID,109,VALID,0,
2012-11-05, 09:57:04,VALID,918.73,VALID,0,VALID,85.9311,VALID,467.799,VALID,22.2015,VALID,125,VALID,0,
2012-11-05, 09:58:04,VALID,918.745,VALID,0,VALID,83.5755,VALID,487.138,VALID,22.2388,VALID,153,VALID,0,
2012-11-05, 09:59:04,VALID,918.663,VALID,0,VALID,84.132,VALID,503.254,VALID,22.3381,VALID,187,VALID,0,
2012-11-05, 10:00:04,VALID,918.946,VALID,0,VALID,83.4078,VALID,521.734,VALID,22.434,VALID,187,VALID,0,
2012-11-05, 10:01:04,VALID,918.697,VALID,0,VALID,83.9872,VALID,533.338,VALID,22.6309,VALID,202,VALID,0,
2012-11-05, 10:02:04,VALID,918.694,VALID,0,VALID,82.2109,VALID,559.983,VALID,22.7853,VALID,204,VALID,0,
2012-11-05, 10:03:04,VALID,918.747,VALID,0,VALID,82.4854,VALID,580.505,VALID,23.0213,VALID,203,VALID,0,
2012-11-05, 10:04:04,VALID,918.708,VALID,0,VALID,81.6544,VALID,585.232,VALID,23.0798,VALID,239,VALID,0,
2012-11-05, 10:05:04,VALID,918.678,VALID,0,VALID,79.7638,VALID,584.91,VALID,23.1562,VALID,218,VALID,0,
2012-11-05, 10:06:04,VALID,918.714,VALID,0,VALID,81.6925,VALID,588.992,VALID,23.2343,VALID,191,VALID,0,
2012-11-05, 10:07:04,VALID,918.641,VALID,0,VALID,78.605,VALID,586.414,VALID,23.2928,VALID,134,VALID,0,
2012-11-05, 10:08:04,VALID,918.769,VALID,0,VALID,79.6723,VALID,597.803,VALID,23.3904,VALID,134,VALID,0,
2012-11-05, 10:09:04,VALID,918.682,VALID,0,VALID,79.2149,VALID,624.663,VALID,23.3709,VALID,126,VALID,0,
2012-11-05, 10:10:04,VALID,918.697,VALID,0,VALID,79.6266,VALID,643.68,VALID,23.3319,VALID,164,VALID,0,
2012-11-05, 10:11:04,VALID,918.655,VALID,0,VALID,79.1234,VALID,658.722,VALID,23.3336,VALID,154,VALID,0,
2012-11-05, 10:12:04,VALID,918.702,VALID,0,VALID,77.21,VALID,662.59,VALID,23.5094,VALID,148,VALID,0,
2012-11-05, 10:13:04,VALID,918.634,VALID,0,VALID,76.0436,VALID,664.094,VALID,23.6851,VALID,64,VALID,0,
2012-11-05, 10:14:04,VALID,918.648,VALID,0,VALID,77.4768,VALID,629.283,VALID,23.859,VALID,64,VALID,0,
2012-11-05, 10:15:04,VALID,918.667,VALID,0,VALID,78.2849,VALID,548.595,VALID,24.0347,VALID,64,VALID,0,
2012-11-05, 10:16:04,VALID,918.826,VALID,0,VALID,76.5162,VALID,508.519,VALID,24.2495,VALID,64,VALID,0,
2012-11-05, 10:17:04,VALID,918.716,VALID,0,VALID,76.1808,VALID,484.022,VALID,24.111,VALID,158,VALID,0,
2012-11-05, 10:18:04,VALID,918.708,VALID,0,VALID,77.5987,VALID,459.848,VALID,23.9548,VALID,157,VALID,0,
2012-11-05, 10:19:04,VALID,918.194,VALID,0,VALID,75.4337,VALID,434.599,VALID,23.7809,VALID,139,VALID,0,
2012-11-05, 10:20:04,VALID,918.679,VALID,0,VALID,74.3664,VALID,420.095,VALID,23.6229,VALID,124,VALID,0,
2012-11-05, 10:21:04,VALID,918.704,VALID,0,VALID,77.1718,VALID,415.797,VALID,23.6034,VALID,187,VALID,0,
2012-11-05, 10:22:04,VALID,918.662,VALID,0,VALID,76.966,VALID,421.707,VALID,23.6265,VALID,225,VALID,0,
2012-11-05, 10:23:04,VALID,918.65,VALID,0,VALID,74.6637,VALID,423.533,VALID,23.5857,VALID,139,VALID,0,
2012-11-05, 10:24:04,VALID,918.811,VALID,0,VALID,75.3498,VALID,427.401,VALID,23.5857,VALID,5,VALID,0,
2012-11-05, 10:25:04,VALID,918.617,VALID,0,VALID,77.9037,VALID,440.186,VALID,23.7028,VALID,359,VALID,0,
2012-11-05, 10:26:04,VALID,919.524,VALID,0,VALID,75.7691,VALID,457.055,VALID,23.74,VALID,267,VALID,0,
2012-11-05, 10:27:04,VALID,918.62,VALID,0,VALID,76.5848,VALID,463.501,VALID,23.7791,VALID,188,VALID,0,
2012-11-05, 10:28:04,VALID,918.594,VALID,0,VALID,74.1682,VALID,473.063,VALID,23.74,VALID,170,VALID,0,
2012-11-05, 10:29:04,VALID,918.587,VALID,0,VALID,75.4413,VALID,468.551,VALID,23.8181,VALID,170,VALID,0,
2012-11-05, 10:30:04,VALID,918.57,VALID,0,VALID,76.5238,VALID,465.65,VALID,23.8377,VALID,128,VALID,0,
2012-11-05, 10:31:04,VALID,918.554,VALID,0,VALID,73.1162,VALID,461.782,VALID,23.662,VALID,106,VALID,0,
2012-11-05, 10:32:04,VALID,918.521,VALID,0,VALID,76.7144,VALID,458.451,VALID,23.4863,VALID,69,VALID,0,
2012-11-05, 10:33:04,VALID,918.54,VALID,0,VALID,76.1122,VALID,467.584,VALID,23.4685,VALID,54,VALID,0,
2012-11-05, 10:34:04,VALID,918.506,VALID,0,VALID,77.9799,VALID,479.94,VALID,23.4685,VALID,69,VALID,0,
2012-11-05, 10:35:04,VALID,918.501,VALID,0,VALID,77.553,VALID,490.147,VALID,23.4472,VALID,67,VALID,0,
2012-11-05, 10:36:04,VALID,918.502,VALID,0,VALID,76.196,VALID,498.527,VALID,23.3301,VALID,111,VALID,0,
2012-11-05, 10:37:04,VALID,918.453,VALID,0,VALID,76.4552,VALID,507.015,VALID,23.3691,VALID,85,VALID,0,
2012-11-05, 10:38:04,VALID,918.482,VALID,0,VALID,77.9799,VALID,516.04,VALID,23.4472,VALID,86,VALID,0,
2012-11-05, 10:39:04,VALID,918.446,VALID,0,VALID,77.2328,VALID,505.618,VALID,23.449,VALID,123,VALID,0,
2012-11-05, 10:40:04,VALID,918.431,VALID,0,VALID,77.9647,VALID,484.882,VALID,23.3319,VALID,103,VALID,0,
2012-11-05, 10:41:04,VALID,918.429,VALID,0,VALID,75.9597,VALID,475.212,VALID,23.2928,VALID,140,VALID,0,
2012-11-05, 10:42:04,VALID,918.44,VALID,0,VALID,81.2656,VALID,444.914,VALID,23.2928,VALID,94,VALID,0,
2012-11-05, 10:43:04,VALID,918.44,VALID,0,VALID,80.1526,VALID,421.814,VALID,23.2147,VALID,108,VALID,0,
2012-11-05, 10:44:04,VALID,918.414,VALID,0,VALID,78.9176,VALID,413.648,VALID,23.0568,VALID,107,VALID,0,
2012-11-05, 10:45:04,VALID,918.411,VALID,0,VALID,81.4791,VALID,416.012,VALID,23.0391,VALID,76,VALID,0,
2012-11-05, 10:46:04,VALID,918.409,VALID,0,VALID,82.4549,VALID,440.186,VALID,23.0373,VALID,95,VALID,0,
2012-11-05, 10:47:04,VALID,918.427,VALID,0,VALID,82.3863,VALID,471.667,VALID,23,VALID,127,VALID,0,
2012-11-05, 10:48:04,VALID,918.39,VALID,0,VALID,82.0127,VALID,484.345,VALID,22.9983,VALID,105,VALID,0,
2012-11-05, 10:49:04,VALID,918.351,VALID,0,VALID,82.2948,VALID,486.171,VALID,23.1171,VALID,71,VALID,0,
2012-11-05, 10:50:04,VALID,918.374,VALID,0,VALID,81.5629,VALID,499.172,VALID,23.0781,VALID,117,VALID,0,
2012-11-05, 10:51:04,VALID,918.368,VALID,0,VALID,81.3037,VALID,495.841,VALID,22.9592,VALID,130,VALID,0,
2012-11-05, 10:52:04,VALID,918.305,VALID,0,VALID,83.202,VALID,495.089,VALID,22.9415,VALID,167,VALID,0,
2012-11-05, 10:53:04,VALID,918.311,VALID,0,VALID,84.9782,VALID,492.618,VALID,23.0568,VALID,102,VALID,0,
2012-11-05, 10:54:04,VALID,918.275,VALID,0,VALID,82.0584,VALID,489.609,VALID,23.1544,VALID,85,VALID,0,
2012-11-05, 10:55:04,VALID,918.278,VALID,0,VALID,81.6315,VALID,490.039,VALID,23.2733,VALID,82,VALID,0,
2012-11-05, 10:56:04,VALID,918.275,VALID,0,VALID,80.2669,VALID,493.8,VALID,23.2538,VALID,108,VALID,0,
2012-11-05, 10:57:04,VALID,918.23,VALID,0,VALID,82.0889,VALID,502.61,VALID,23.3123,VALID,91,VALID,0,
2012-11-05, 10:58:04,VALID,918.237,VALID,0,VALID,82.4549,VALID,514.213,VALID,23.4472,VALID,91,VALID,0,
2012-11-05, 10:59:04,VALID,918.188,VALID,0,VALID,82.9046,VALID,525.28,VALID,23.6052,VALID,91,VALID,0,
2012-11-05, 11:00:04,VALID,918.185,VALID,0,VALID,79.7943,VALID,538.817,VALID,23.6052,VALID,92,VALID,0,
2012-11-05, 11:01:04,VALID,918.162,VALID,0,VALID,81.906,VALID,525.172,VALID,23.6229,VALID,85,VALID,0,
2012-11-05, 11:02:04,VALID,918.165,VALID,0,VALID,78.201,VALID,503.684,VALID,23.8199,VALID,38,VALID,0,
2012-11-05, 11:03:04,VALID,918.152,VALID,0,VALID,78.605,VALID,487.89,VALID,23.8199,VALID,49,VALID,0,
2012-11-05, 11:04:04,VALID,918.162,VALID,0,VALID,78.4754,VALID,478.65,VALID,23.6247,VALID,63,VALID,0,
2012-11-05, 11:05:04,VALID,918.109,VALID,0,VALID,78.8185,VALID,475.32,VALID,23.488,VALID,70,VALID,0,
2012-11-05, 11:06:04,VALID,918.142,VALID,0,VALID,79.4131,VALID,479.188,VALID,23.3123,VALID,115,VALID,0.358203,
2012-11-05, 11:07:04,VALID,918.144,VALID,0,VALID,80.7853,VALID,486.171,VALID,23.2733,VALID,114,VALID,0,
2012-11-05, 11:08:04,VALID,918.136,VALID,0,VALID,80.5948,VALID,495.089,VALID,23.3691,VALID,84,VALID,0,
2012-11-05, 11:09:04,VALID,918.116,VALID,0,VALID,78.4678,VALID,511.42,VALID,23.5076,VALID,157,VALID,0,
2012-11-05, 11:10:04,VALID,918.124,VALID,0,VALID,77.7665,VALID,524.635,VALID,23.4667,VALID,111,VALID,0,
2012-11-05, 11:11:04,VALID,918.129,VALID,0,VALID,76.4705,VALID,535.057,VALID,23.5058,VALID,137,VALID,0,
2012-11-05, 11:12:04,VALID,918.121,VALID,0,VALID,78.5745,VALID,550.528,VALID,23.4472,VALID,115,VALID,0,
2012-11-05, 11:13:04,VALID,918.072,VALID,0,VALID,76.9584,VALID,554.289,VALID,23.3691,VALID,56,VALID,0,
2012-11-05, 11:14:04,VALID,918.031,VALID,0,VALID,78.3611,VALID,516.362,VALID,23.4277,VALID,61,VALID,0,
2012-11-05, 11:15:04,VALID,918.07,VALID,0,VALID,80.3127,VALID,524.313,VALID,23.5253,VALID,69,VALID,0,
2012-11-05, 11:16:04,VALID,918.053,VALID,0,VALID,76.9508,VALID,519.478,VALID,23.4863,VALID,66,VALID,0,
2012-11-05, 11:17:04,VALID,917.969,VALID,0,VALID,78.0028,VALID,492.403,VALID,23.4472,VALID,54,VALID,0,
2012-11-05, 11:18:04,VALID,917.998,VALID,0,VALID,76.6916,VALID,481.121,VALID,23.5253,VALID,63,VALID,0,
2012-11-05, 11:19:04,VALID,917.966,VALID,0,VALID,78.4145,VALID,472.741,VALID,23.5643,VALID,77,VALID,0,
2012-11-05, 11:20:04,VALID,917.956,VALID,0,VALID,77.2938,VALID,469.088,VALID,23.5253,VALID,87,VALID,0,
2012-11-05, 11:21:04,VALID,917.916,VALID,0,VALID,78.7575,VALID,467.476,VALID,23.5058,VALID,105,VALID,0,
2012-11-05, 11:22:04,VALID,917.912,VALID,0,VALID,77.2709,VALID,466.832,VALID,23.4863,VALID,118,VALID,0,
2012-11-05, 11:23:04,VALID,917.929,VALID,0,VALID,77.3014,VALID,465.005,VALID,23.3319,VALID,112,VALID,0,
2012-11-05, 11:24:04,VALID,917.885,VALID,0,VALID,77.5683,VALID,463.823,VALID,23.2325,VALID,102,VALID,0,
2012-11-05, 11:25:04,VALID,917.878,VALID,0,VALID,78.262,VALID,462.964,VALID,23.2538,VALID,98,VALID,0,
2012-11-05, 11:26:04,VALID,917.841,VALID,0,VALID,78.6279,VALID,463.609,VALID,23.213,VALID,93,VALID,0,
2012-11-05, 11:27:04,VALID,917.875,VALID,0,VALID,80.2441,VALID,464.361,VALID,23.1739,VALID,47,VALID,0,
2012-11-05, 11:28:04,VALID,917.809,VALID,0,VALID,80.3203,VALID,466.187,VALID,23.3301,VALID,98,VALID,0,
2012-11-05, 11:29:04,VALID,917.815,VALID,0,VALID,77.6979,VALID,466.617,VALID,23.3496,VALID,95,VALID,0,
2012-11-05, 11:30:04,VALID,917.787,VALID,0,VALID,79.3826,VALID,471.667,VALID,23.3319,VALID,94,VALID,0,
2012-11-05, 11:31:04,VALID,917.79,VALID,0,VALID,77.7817,VALID,488.535,VALID,23.3123,VALID,127,VALID,0,
2012-11-05, 11:32:04,VALID,917.752,VALID,0,VALID,77.4844,VALID,509.808,VALID,23.3319,VALID,104,VALID,0,
2012-11-05, 11:33:04,VALID,917.74,VALID,0,VALID,79.3903,VALID,542.363,VALID,23.3514,VALID,78,VALID,0,
2012-11-05, 11:34:04,VALID,917.738,VALID,0,VALID,80.1221,VALID,632.721,VALID,23.4667,VALID,117,VALID,0,
2012-11-05, 11:35:04,VALID,917.72,VALID,0,VALID,78.2162,VALID,530.867,VALID,23.662,VALID,150,VALID,0,
2012-11-05, 11:36:04,VALID,917.713,VALID,0,VALID,77.8275,VALID,479.08,VALID,23.7986,VALID,147,VALID,0,
2012-11-05, 11:37:04,VALID,917.703,VALID,0,VALID,76.0969,VALID,447.815,VALID,23.8572,VALID,156,VALID,0,
2012-11-05, 11:38:04,VALID,917.698,VALID,0,VALID,78.7728,VALID,430.732,VALID,23.9743,VALID,134,VALID,0,
2012-11-05, 11:39:04,VALID,917.695,VALID,0,VALID,73.97,VALID,419.558,VALID,23.7986,VALID,114,VALID,0,
2012-11-05, 11:40:04,VALID,917.67,VALID,0,VALID,75.7844,VALID,411.715,VALID,23.7418,VALID,131,VALID,0,
2012-11-05, 11:41:04,VALID,917.675,VALID,0,VALID,76.7678,VALID,407.632,VALID,23.7418,VALID,112,VALID,0,
2012-11-05, 11:42:04,VALID,917.673,VALID,0,VALID,78.4678,VALID,405.805,VALID,23.6638,VALID,135,VALID,0,
2012-11-05, 11:43:04,VALID,917.661,VALID,0,VALID,78.2162,VALID,405.053,VALID,23.662,VALID,135,VALID,0,
2012-11-05, 11:44:04,VALID,917.632,VALID,0,VALID,77.1795,VALID,404.409,VALID,23.7614,VALID,145,VALID,0,
2012-11-05, 11:45:04,VALID,917.613,VALID,0,VALID,77.9037,VALID,405.59,VALID,23.8767,VALID,135,VALID,0,
2012-11-05, 11:46:04,VALID,917.58,VALID,0,VALID,76.7373,VALID,408.814,VALID,23.9158,VALID,55,VALID,0,
2012-11-05, 11:47:04,VALID,917.552,VALID,0,VALID,79.5275,VALID,415.582,VALID,23.8572,VALID,21,VALID,0,
2012-11-05, 11:48:04,VALID,917.547,VALID,0,VALID,79.9468,VALID,422.673,VALID,23.9371,VALID,28,VALID,0,
2012-11-05, 11:49:04,VALID,917.527,VALID,0,VALID,77.6064,VALID,427.616,VALID,23.9939,VALID,172,VALID,0,
2012-11-05, 11:50:04,VALID,917.494,VALID,0,VALID,77.3396,VALID,428.26,VALID,24.0524,VALID,186,VALID,0,
2012-11-05, 11:51:04,VALID,917.51,VALID,0,VALID,75.1059,VALID,431.269,VALID,24.0738,VALID,80,VALID,0,
2012-11-05, 11:52:04,VALID,917.489,VALID,0,VALID,77.614,VALID,436.963,VALID,24.0915,VALID,47,VALID,0,
2012-11-05, 11:53:04,VALID,917.496,VALID,0,VALID,79.7104,VALID,443.302,VALID,24.0719,VALID,89,VALID,0,
2012-11-05, 11:54:04,VALID,917.46,VALID,0,VALID,78.8642,VALID,445.988,VALID,24.1324,VALID,49,VALID,0,
2012-11-05, 11:55:04,VALID,917.441,VALID,0,VALID,78.1171,VALID,445.236,VALID,24.1891,VALID,47,VALID,0,
2012-11-05, 11:56:04,VALID,917.451,VALID,0,VALID,76.9813,VALID,440.294,VALID,24.2086,VALID,25,VALID,0,
2012-11-05, 11:57:04,VALID,917.445,VALID,0,VALID,75.3803,VALID,432.666,VALID,24.3258,VALID,51,VALID,0,
2012-11-05, 11:58:04,VALID,917.442,VALID,0,VALID,75.388,VALID,425.897,VALID,24.4039,VALID,50,VALID,0,
2012-11-05, 11:59:04,VALID,917.441,VALID,0,VALID,76.257,VALID,421.599,VALID,24.2886,VALID,88,VALID,0,
2012-11-05, 12:00:04,VALID,917.398,VALID,0,VALID,76.8135,VALID,418.054,VALID,24.2477,VALID,44,VALID,0,
2012-11-05, 12:01:04,VALID,917.397,VALID,0,VALID,77.9418,VALID,414.186,VALID,24.2886,VALID,21,VALID,0,
2012-11-05, 12:02:04,VALID,917.366,VALID,0,VALID,73.9243,VALID,411.392,VALID,24.3472,VALID,39,VALID,0,
2012-11-05, 12:03:04,VALID,917.38,VALID,0,VALID,74.2673,VALID,408.814,VALID,24.4839,VALID,39,VALID,0,
2012-11-05, 12:04:04,VALID,917.358,VALID,0,VALID,74.3817,VALID,407.202,VALID,24.5796,VALID,43,VALID,0,
2012-11-05, 12:05:04,VALID,917.317,VALID,0,VALID,76.2647,VALID,409.351,VALID,24.5424,VALID,87,VALID,0,
2012-11-05, 12:06:04,VALID,917.319,VALID,0,VALID,76.3028,VALID,410.748,VALID,24.5015,VALID,112,VALID,0,
2012-11-05, 12:07:04,VALID,917.284,VALID,0,VALID,76.318,VALID,414.186,VALID,24.4448,VALID,63,VALID,0,
2012-11-05, 12:08:04,VALID,917.26,VALID,0,VALID,79.0472,VALID,418.806,VALID,24.3648,VALID,69,VALID,0,
2012-11-05, 12:09:04,VALID,917.233,VALID,0,VALID,79.7867,VALID,427.831,VALID,24.2495,VALID,54,VALID,0,
2012-11-05, 12:10:04,VALID,917.223,VALID,0,VALID,80.0992,VALID,438.467,VALID,24.2086,VALID,54,VALID,0,
2012-11-05, 12:11:04,VALID,917.159,VALID,0,VALID,80.427,VALID,448.889,VALID,24.1305,VALID,50,VALID,0,